Location: Unspecified
(35.3830°S, 0.0000°E)
Time: 20:12:20
(UTC+00:00)

N. Korean satellite - Visible Passes

Search period start: 26 May 2019 00:00
Search period end: 05 June 2019 00:00
Orbit: 456 x 508 km, 97.2° (Epoch: 25 May)

Date Brightness Start Highest point End Pass type
(mag) Time Alt. Az. Time Alt. Az. Time Alt. Az.
26 May 9.3 04:31:26 10° ENE 04:33:41 16° ESE 04:35:19 13° SE visible
26 May 7.8 06:04:07 10° NNW 06:06:54 22° W 06:09:37 10° SW visible
26 May 7.4 17:32:53 10° SSE 17:36:18 32° E 17:39:41 10° NNE visible
26 May 9.7 19:07:27 10° SW 19:09:22 14° WSW 19:11:17 10° W visible
27 May 6.6 05:38:26 10° N 05:41:49 50° W 05:44:17 17° SSW visible
27 May 8.7 18:41:23 10° SSW 18:44:35 27° WSW 18:47:46 10° NW visible
28 May 6.8 05:13:23 10° NNE 05:16:48 65° ESE 05:18:56 22° S visible
28 May 7.2 18:16:00 10° S 18:19:42 59° WSW 18:23:23 10° NNW visible
29 May 8.5 04:48:54 10° NE 04:51:55 28° ESE 04:53:36 19° SSE visible
29 May 8.5 06:23:46 10° WNW 06:25:23 13° W 06:27:01 10° WSW visible
29 May 6.7 17:51:00 10° SSE 17:54:44 60° E 17:58:26 10° N visible
30 May 9.5 04:25:16 10° E 04:27:07 14° ESE 04:28:16 12° SE visible
30 May 7.5 05:57:13 10° NNW 06:00:14 27° W 06:02:34 14° SW visible
30 May 7.7 17:26:26 10° SE 17:29:41 27° E 17:32:55 10° NNE visible
30 May 9.5 19:00:27 10° SSW 19:02:50 16° WSW 19:05:13 10° WNW visible
31 May 6.4 05:31:43 10° N 05:35:10 64° W 05:37:14 23° SSW visible
31 May 8.4 18:34:37 10° S 18:38:01 32° WSW 18:41:24 10° NW visible
01 Jun 7.3 05:06:48 10° NNE 05:10:12 52° ESE 05:11:54 26° S visible
01 Jun 6.9 18:09:20 10° S 18:13:07 73° WSW 18:16:51 10° NNW visible
02 Jun 8.8 04:42:28 10° NE 04:45:19 23° ESE 04:46:34 19° SE visible
02 Jun 8.2 06:16:31 10° NW 06:18:42 16° W 06:20:54 10° SW visible
02 Jun 6.9 17:44:27 10° SSE 17:48:08 49° E 17:51:46 10° N visible
03 Jun 9.7 04:19:15 10° E 04:20:32 12° ESE 04:21:16 11° SE visible
03 Jun 7.2 05:50:21 10° NNW 05:53:34 33° W 05:55:34 19° SW visible
03 Jun 8.0 17:20:01 10° SE 17:23:03 23° E 17:26:03 10° NNE visible
03 Jun 9.3 18:53:32 10° SSW 18:56:17 19° WSW 18:59:01 10° WNW visible
04 Jun 6.4 05:25:01 10° N 05:28:30 81° WNW 05:30:15 29° SSW visible
04 Jun 8.0 18:27:53 10° S 18:31:26 39° WSW 18:34:57 10° NW visible
